Time,TemperatureF,DewpointF,PressureIn,WindDirection,WindDirectionDegrees,WindSpeedMPH,WindSpeedGustMPH,Humidity,HourlyPrecipIn,Conditions,Clouds,dailyrainin,SoftwareType,DateUTC
2013-06-29 00:05:00,79.9,73.4,0.00,NW,315,0.0,0.0,76,0.00,,,-99.99,Homeseer,2013-06-29 04:05:00,
2013-06-29 00:15:00,80.2,73.3,0.00,South,180,0.0,0.0,75,0.00,,,-99.99,Homeseer,2013-06-29 04:15:00,
2013-06-29 00:25:00,80.4,72.2,0.00,SSE,157,0.0,0.0,71,0.00,,,-99.99,Homeseer,2013-06-29 04:25:00,
2013-06-29 00:35:00,80.2,71.7,0.00,WSW,247,0.0,0.0,70,0.00,,,-99.99,Homeseer,2013-06-29 04:35:00,
2013-06-29 00:45:00,80.2,72.4,0.00,ESE,112,0.0,0.0,72,0.00,,,-99.99,Homeseer,2013-06-29 04:45:00,
2013-06-29 00:55:00,80.2,73.3,0.00,NW,315,0.0,0.0,75,0.00,,,-99.99,Homeseer,2013-06-29 04:55:00,
2013-06-29 01:05:00,80.2,73.6,0.00,NW,315,0.0,0.0,76,0.00,,,-99.99,Homeseer,2013-06-29 05:05:00,
2013-06-29 01:15:00,80.2,72.7,0.00,NW,315,0.0,0.0,73,0.00,,,-99.99,Homeseer,2013-06-29 05:15:00,
2013-06-29 01:25:00,80.2,72.4,0.00,WNW,297,0.0,0.0,72,0.00,,,-99.99,Homeseer,2013-06-29 05:25:00,
2013-06-29 01:35:00,80.2,72.4,0.00,WNW,297,0.0,0.0,72,0.00,,,-99.99,Homeseer,2013-06-29 05:35:00,
2013-06-29 01:45:00,80.1,72.3,0.00,WNW,297,0.0,0.0,72,0.00,,,-99.99,Homeseer,2013-06-29 05:45:00,
2013-06-29 01:55:00,80.2,72.4,0.00,WSW,247,0.0,0.0,72,0.00,,,-99.99,Homeseer,2013-06-29 05:55:00,
2013-06-29 02:05:00,80.2,72.4,0.00,WSW,247,0.0,0.0,72,0.00,,,-99.99,Homeseer,2013-06-29 06:05:00,
2013-06-29 02:15:00,80.6,73.1,0.00,WNW,297,0.9,0.0,73,0.00,,,-99.99,Homeseer,2013-06-29 06:15:00,
2013-06-29 02:25:00,81.0,73.5,0.00,WNW,297,0.0,0.0,73,0.00,,,-99.99,Homeseer,2013-06-29 06:25:00,
2013-06-29 02:35:00,81.3,73.4,0.00,North,0,0.9,0.0,72,0.00,,,-99.99,Homeseer,2013-06-29 06:35:00,
2013-06-29 02:45:00,81.7,73.5,0.00,SSE,157,1.3,3.6,71,0.00,,,-99.99,Homeseer,2013-06-29 06:45:00,
2013-06-29 02:55:00,81.9,73.7,0.00,SSE,157,0.9,0.0,71,0.00,,,-99.99,Homeseer,2013-06-29 06:55:00,
2013-06-29 03:05:00,81.9,73.0,0.00,SSE,157,1.6,0.0,69,0.00,,,-99.99,Homeseer,2013-06-29 07:05:00,
2013-06-29 03:15:00,82.0,73.1,0.00,South,180,0.9,3.6,69,0.00,,,-99.99,Homeseer,2013-06-29 07:15:00,
2013-06-29 03:25:00,81.9,73.3,0.00,WSW,247,0.0,1.1,70,0.00,,,-99.99,Homeseer,2013-06-29 07:25:00,
2013-06-29 03:35:00,81.9,72.7,0.00,ENE,67,0.0,0.0,68,0.00,,,-99.99,Homeseer,2013-06-29 07:35:00,
2013-06-29 03:45:00,82.0,72.8,0.00,East,90,0.0,0.0,68,0.00,,,-99.99,Homeseer,2013-06-29 07:45:00,
2013-06-29 03:55:00,81.9,72.7,0.00,ENE,67,0.0,0.0,68,0.00,,,-99.99,Homeseer,2013-06-29 07:55:00,
2013-06-29 04:05:00,81.9,72.7,0.00,WSW,247,0.0,1.3,68,0.00,,,-99.99,Homeseer,2013-06-29 08:05:00,
2013-06-29 04:15:00,81.9,72.7,0.00,SSE,157,1.1,1.3,68,0.00,,,-99.99,Homeseer,2013-06-29 08:15:00,
2013-06-29 04:25:00,81.9,72.7,0.00,WNW,297,0.0,0.0,68,0.00,,,-99.99,Homeseer,2013-06-29 08:25:00,
2013-06-29 04:35:00,81.9,73.7,0.00,SSE,157,0.0,2.5,71,0.00,,,-99.99,Homeseer,2013-06-29 08:35:00,
2013-06-29 04:45:00,81.9,74.3,0.00,East,90,0.0,0.0,73,1.92,,,-99.99,Homeseer,2013-06-29 08:45:00,
2013-06-29 04:55:00,81.9,74.3,0.00,North,0,1.1,1.1,73,3.38,,,-99.99,Homeseer,2013-06-29 08:55:00,
2013-06-29 05:05:00,81.9,74.3,0.00,North,0,0.0,0.0,73,0.47,,,-99.99,Homeseer,2013-06-29 09:05:00,
2013-06-29 05:15:00,81.9,74.3,0.00,North,0,1.3,1.3,73,0.62,,,-99.99,Homeseer,2013-06-29 09:15:00,
2013-06-29 05:25:00,81.9,74.3,0.00,WSW,247,5.6,5.6,73,2.28,,,-99.99,Homeseer,2013-06-29 09:25:00,
2013-06-29 05:35:00,81.9,74.3,0.00,ESE,112,3.1,3.1,73,1.65,,,-99.99,Homeseer,2013-06-29 09:35:00,
2013-06-29 05:45:00,0.0,0.0,0.00,NNE,22,2.5,0.0,0,2.36,,,-99.99,Homeseer,2013-06-29 09:45:00,
2013-06-29 05:55:00,0.0,0.0,0.00,North,0,0.0,0.0,0,0.98,,,-99.99,Homeseer,2013-06-29 09:55:00,
2013-06-29 06:05:00,0.0,0.0,0.00,North,0,0.0,0.0,0,0.70,,,-99.99,Homeseer,2013-06-29 10:05:00,
2013-06-29 06:15:00,0.0,0.0,0.00,NW,315,0.0,0.0,0,0.70,,,-99.99,Homeseer,2013-06-29 10:15:00,
2013-06-29 06:25:00,0.0,0.0,0.00,WNW,297,0.0,0.0,0,0.70,,,-99.99,Homeseer,2013-06-29 10:25:00,
2013-06-29 06:35:00,0.0,0.0,0.00,NW,315,0.0,0.0,0,0.70,,,-99.99,Homeseer,2013-06-29 10:35:00,
2013-06-29 06:45:00,0.0,0.0,0.00,WNW,297,0.0,0.0,0,0.70,,,-99.99,Homeseer,2013-06-29 10:45:00,
2013-06-29 06:55:00,0.0,0.0,0.00,North,0,0.0,0.0,0,0.70,,,-99.99,Homeseer,2013-06-29 10:55:00,
2013-06-29 07:05:00,0.0,0.0,0.00,South,180,0.0,0.0,0,0.70,,,-99.99,Homeseer,2013-06-29 11:05:00,
2013-06-29 07:15:00,0.0,0.0,0.00,South,180,0.0,0.0,0,0.70,,,-99.99,Homeseer,2013-06-29 11:15:00,
2013-06-29 07:25:00,0.0,0.0,0.00,North,0,0.0,0.0,0,0.70,,,-99.99,Homeseer,2013-06-29 11:25:00,
2013-06-29 07:35:00,0.0,0.0,0.00,WSW,247,0.0,0.0,0,0.70,,,-99.99,Homeseer,2013-06-29 11:35:00,
2013-06-29 07:45:00,0.0,0.0,0.00,WSW,247,0.0,0.0,0,0.70,,,-99.99,Homeseer,2013-06-29 11:45:00,
2013-06-29 07:55:00,0.0,0.0,0.00,North,0,0.0,0.0,0,0.70,,,-99.99,Homeseer,2013-06-29 11:55:00,
2013-06-29 08:05:00,0.0,0.0,0.00,North,0,0.0,0.0,0,0.70,,,-99.99,Homeseer,2013-06-29 12:05:00,
2013-06-29 08:15:00,0.0,0.0,0.00,North,0,0.0,0.0,0,0.00,,,-99.99,Homeseer,2013-06-29 12:15:00,
2013-06-29 08:25:00,0.0,0.0,0.00,North,0,0.0,0.0,0,0.00,,,-99.99,Homeseer,2013-06-29 12:25:00,
2013-06-29 08:35:00,0.0,0.0,0.00,North,0,0.0,0.0,0,0.00,,,-99.99,Homeseer,2013-06-29 12:35:00,
2013-06-29 08:45:00,0.0,0.0,0.00,South,180,0.0,0.0,0,0.00,,,-99.99,Homeseer,2013-06-29 12:45:00,
2013-06-29 08:55:00,0.0,0.0,0.00,ESE,112,1.1,2.0,0,0.00,,,-99.99,Homeseer,2013-06-29 12:55:00,
2013-06-29 09:05:00,0.0,0.0,0.00,WSW,247,0.0,0.0,0,0.00,,,-99.99,Homeseer,2013-06-29 13:05:00,
2013-06-29 09:15:00,0.0,0.0,0.00,North,0,0.0,0.0,0,0.00,,,-99.99,Homeseer,2013-06-29 13:15:00,
2013-06-29 09:25:00,0.0,0.0,0.00,WSW,247,0.0,1.1,0,0.00,,,-99.99,Homeseer,2013-06-29 13:25:00,
2013-06-29 09:35:00,0.0,0.0,0.00,North,0,2.9,2.9,0,0.00,,,-99.99,Homeseer,2013-06-29 13:35:00,
2013-06-29 09:45:00,0.0,0.0,0.00,North,0,4.0,0.0,0,0.00,,,-99.99,Homeseer,2013-06-29 13:45:00,
2013-06-29 09:55:00,0.0,0.0,0.00,North,0,2.2,2.2,0,0.00,,,-99.99,Homeseer,2013-06-29 13:55:00,
2013-06-29 10:05:00,0.0,0.0,0.00,NNE,22,1.3,1.3,0,0.00,,,-99.99,Homeseer,2013-06-29 14:05:00,
2013-06-29 10:15:00,0.0,0.0,0.00,North,0,1.6,2.0,0,0.00,,,-99.99,Homeseer,2013-06-29 14:15:00,
2013-06-29 10:25:00,0.0,0.0,0.00,WSW,247,2.2,2.2,0,0.00,,,-99.99,Homeseer,2013-06-29 14:25:00,
2013-06-29 10:35:00,0.0,0.0,0.00,WSW,247,1.1,1.6,0,0.00,,,-99.99,Homeseer,2013-06-29 14:35:00,
2013-06-29 10:45:00,86.4,83.5,0.00,South,180,4.3,4.3,89,0.00,,,-99.99,Homeseer,2013-06-29 14:45:00,
2013-06-29 10:55:00,87.3,84.6,0.00,South,180,3.6,3.6,90,0.00,,,-99.99,Homeseer,2013-06-29 14:55:00,
2013-06-29 11:05:00,87.8,85.1,0.00,SSE,157,2.7,3.1,90,0.00,,,-99.99,Homeseer,2013-06-29 15:05:00,
2013-06-29 11:15:00,88.7,86.3,0.00,North,0,1.3,4.0,91,0.00,,,-99.99,Homeseer,2013-06-29 15:15:00,
2013-06-29 11:25:00,89.1,86.1,0.00,North,0,3.1,3.1,89,0.00,,,-99.99,Homeseer,2013-06-29 15:25:00,
2013-06-29 11:35:00,89.4,86.1,0.00,SSE,157,2.5,0.0,88,0.00,,,-99.99,Homeseer,2013-06-29 15:35:00,
2013-06-29 11:45:00,89.4,81.1,0.00,South,180,4.0,7.2,72,0.00,,,-99.99,Homeseer,2013-06-29 15:45:00,
2013-06-29 11:55:00,90.3,79.9,0.00,ESE,112,4.5,4.5,66,0.00,,,-99.99,Homeseer,2013-06-29 15:55:00,
2013-06-29 12:05:00,90.9,78.5,0.00,NNE,22,1.6,0.0,61,0.00,,,-99.99,Homeseer,2013-06-29 16:05:00,
2013-06-29 12:15:00,91.0,79.4,0.00,SSE,157,3.6,3.6,63,0.00,,,-99.99,Homeseer,2013-06-29 16:15:00,
2013-06-29 12:25:00,91.0,75.7,0.00,WSW,247,3.1,6.0,54,0.00,,,-99.99,Homeseer,2013-06-29 16:25:00,
2013-06-29 12:35:00,91.4,73.7,0.00,North,0,3.8,3.8,49,0.00,,,-99.99,Homeseer,2013-06-29 16:35:00,
2013-06-29 12:45:00,91.4,70.7,0.00,SW,225,4.0,4.0,43,0.00,,,-99.99,Homeseer,2013-06-29 16:45:00,
2013-06-29 12:55:00,92.1,73.4,0.00,North,0,4.9,4.9,47,0.00,,,-99.99,Homeseer,2013-06-29 16:55:00,
2013-06-29 13:05:00,91.9,70.1,0.00,South,180,6.7,6.7,41,0.00,,,-99.99,Homeseer,2013-06-29 17:05:00,
2013-06-29 13:15:00,92.5,71.7,0.00,South,180,4.7,4.7,43,0.00,,,-99.99,Homeseer,2013-06-29 17:15:00,
2013-06-29 13:25:00,92.5,71.1,0.00,South,180,4.5,5.4,42,0.00,,,-99.99,Homeseer,2013-06-29 17:25:00,
2013-06-29 13:35:00,92.7,71.3,0.00,North,0,6.0,6.0,42,0.00,,,-99.99,Homeseer,2013-06-29 17:35:00,
2013-06-29 13:45:00,92.8,70.8,0.00,WSW,247,5.6,5.6,41,0.00,,,-99.99,Homeseer,2013-06-29 17:45:00,
2013-06-29 13:55:00,92.8,69.1,0.00,North,0,5.4,6.5,38,0.00,,,-99.99,Homeseer,2013-06-29 17:55:00,
2013-06-29 14:05:00,93.0,69.9,0.00,South,180,4.9,6.0,39,0.00,,,-99.99,Homeseer,2013-06-29 18:05:00,
2013-06-29 14:15:00,93.0,69.9,0.00,South,180,5.4,8.1,39,0.00,,,-99.99,Homeseer,2013-06-29 18:15:00,
2013-06-29 14:25:00,93.2,69.5,0.00,WSW,247,7.4,7.4,38,0.00,,,-99.99,Homeseer,2013-06-29 18:25:00,
2013-06-29 14:35:00,93.2,70.0,0.00,South,180,2.7,2.7,39,0.00,,,-99.99,Homeseer,2013-06-29 18:35:00,
2013-06-29 14:45:00,93.4,69.0,0.00,South,180,5.4,5.8,37,0.00,,,-99.99,Homeseer,2013-06-29 18:45:00,
2013-06-29 14:55:00,93.2,69.5,0.00,North,0,4.3,4.3,38,0.00,,,-99.99,Homeseer,2013-06-29 18:55:00,
2013-06-29 15:05:00,92.8,69.1,0.00,SW,225,5.8,6.3,38,0.00,,,-99.99,Homeseer,2013-06-29 19:05:00,
2013-06-29 15:15:00,92.8,69.1,0.00,SSE,157,3.4,3.4,38,0.00,,,-99.99,Homeseer,2013-06-29 19:15:00,
2013-06-29 15:25:00,92.8,69.1,0.00,South,180,3.1,3.1,38,0.00,,,-99.99,Homeseer,2013-06-29 19:25:00,
2013-06-29 15:35:00,92.1,68.5,0.00,ESE,112,4.9,4.9,38,0.00,,,-99.99,Homeseer,2013-06-29 19:35:00,
2013-06-29 15:45:00,92.3,69.3,0.00,SSE,157,6.5,6.5,39,0.00,,,-99.99,Homeseer,2013-06-29 19:45:00,
2013-06-29 15:55:00,90.3,68.1,0.00,WNW,297,1.6,2.2,40,0.00,,,-99.99,Homeseer,2013-06-29 19:55:00,
2013-06-29 16:05:00,90.0,68.9,0.00,West,270,2.2,0.0,42,0.00,,,-99.99,Homeseer,2013-06-29 20:05:00,
2013-06-29 16:15:00,90.7,69.0,0.00,ESE,112,2.5,2.5,41,0.00,,,-99.99,Homeseer,2013-06-29 20:15:00,
2013-06-29 16:25:00,90.3,68.7,0.00,West,270,2.0,0.0,41,0.00,,,-99.99,Homeseer,2013-06-29 20:25:00,
2013-06-29 16:35:00,89.4,67.9,0.00,ESE,112,0.0,0.0,41,0.00,,,-99.99,Homeseer,2013-06-29 20:35:00,
2013-06-29 16:45:00,88.7,67.8,0.00,North,0,2.5,3.4,42,0.00,,,-99.99,Homeseer,2013-06-29 20:45:00,
2013-06-29 16:55:00,87.8,65.9,0.00,NW,315,3.1,3.1,40,0.00,,,-99.99,Homeseer,2013-06-29 20:55:00,
2013-06-29 17:05:00,87.6,65.2,0.00,WNW,297,2.0,2.0,39,0.00,,,-99.99,Homeseer,2013-06-29 21:05:00,
2013-06-29 17:15:00,87.4,65.0,0.00,NW,315,0.0,0.9,39,0.00,,,-99.99,Homeseer,2013-06-29 21:15:00,
2013-06-29 17:25:00,87.3,64.4,0.00,NW,315,1.1,2.5,38,0.00,,,-99.99,Homeseer,2013-06-29 21:25:00,
2013-06-29 17:35:00,87.1,64.2,0.00,WNW,297,2.9,2.9,38,0.00,,,-99.99,Homeseer,2013-06-29 21:35:00,
2013-06-29 17:45:00,86.7,64.4,0.00,WNW,297,1.3,3.6,39,0.00,,,-99.99,Homeseer,2013-06-29 21:45:00,
2013-06-29 17:55:00,86.2,66.1,0.00,North,0,4.9,4.9,43,0.00,,,-99.99,Homeseer,2013-06-29 21:55:00,
2013-06-29 18:05:00,85.5,66.5,0.00,North,0,1.3,1.3,45,0.00,,,-99.99,Homeseer,2013-06-29 22:05:00,
2013-06-29 18:15:00,85.6,67.1,0.00,North,0,1.6,1.6,46,0.00,,,-99.99,Homeseer,2013-06-29 22:15:00,
2013-06-29 18:25:00,85.5,67.0,0.00,ENE,67,0.0,0.0,46,0.00,,,-99.99,Homeseer,2013-06-29 22:25:00,
2013-06-29 18:35:00,85.1,67.2,0.00,East,90,0.0,0.0,47,0.00,,,-99.99,Homeseer,2013-06-29 22:35:00,
2013-06-29 18:45:00,85.6,67.6,0.00,North,0,2.2,2.2,47,0.00,,,-99.99,Homeseer,2013-06-29 22:45:00,
2013-06-29 18:55:00,85.6,68.1,0.00,WNW,297,0.0,0.0,48,0.00,,,-99.99,Homeseer,2013-06-29 22:55:00,
2013-06-29 19:05:00,85.8,68.7,0.00,WNW,297,3.1,3.1,49,0.00,,,-99.99,Homeseer,2013-06-29 23:05:00,
2013-06-29 19:15:00,85.6,66.6,0.00,WNW,297,2.2,2.2,45,0.00,,,-99.99,Homeseer,2013-06-29 23:15:00,
2013-06-29 19:25:00,85.6,66.6,0.00,WSW,247,1.6,2.5,45,0.00,,,-99.99,Homeseer,2013-06-29 23:25:00,
2013-06-29 19:35:00,85.6,66.6,0.00,SSE,157,0.0,0.0,45,0.00,,,-99.99,Homeseer,2013-06-29 23:35:00,
2013-06-29 19:45:00,85.6,66.6,0.00,West,270,1.3,1.3,45,0.00,,,-99.99,Homeseer,2013-06-29 23:45:00,
2013-06-29 19:55:00,85.6,66.6,0.00,WNW,297,0.9,0.0,45,0.00,,,-99.99,Homeseer,2013-06-29 23:55:00,
2013-06-29 20:05:00,83.5,67.6,0.00,West,270,0.9,3.6,51,0.00,,,-99.99,Homeseer,2013-06-30 00:05:00,
2013-06-29 20:15:00,83.5,67.6,0.00,South,180,0.0,0.0,51,0.00,,,-99.99,Homeseer,2013-06-30 00:15:00,
2013-06-29 20:25:00,83.5,67.6,0.00,West,270,0.0,0.0,51,0.00,,,-99.99,Homeseer,2013-06-30 00:25:00,
2013-06-29 20:35:00,83.5,67.6,0.00,SSE,157,0.0,0.0,51,0.00,,,-99.99,Homeseer,2013-06-30 00:35:00,
2013-06-29 20:45:00,83.1,68.1,0.00,North,0,0.0,0.0,53,0.00,,,-99.99,Homeseer,2013-06-30 00:45:00,
2013-06-29 20:55:00,83.3,68.2,0.00,WNW,297,0.0,0.0,53,0.00,,,-99.99,Homeseer,2013-06-30 00:55:00,
2013-06-29 21:05:00,83.1,68.9,0.00,WNW,297,0.0,0.0,55,0.00,,,-99.99,Homeseer,2013-06-30 01:05:00,
2013-06-29 21:15:00,83.1,68.9,0.00,South,180,0.0,0.0,55,0.00,,,-99.99,Homeseer,2013-06-30 01:15:00,
2013-06-29 21:25:00,83.3,69.1,0.00,WSW,247,0.0,0.0,55,0.00,,,-99.99,Homeseer,2013-06-30 01:25:00,
2013-06-29 21:35:00,83.3,69.1,0.00,WSW,247,0.0,0.0,55,0.00,,,-99.99,Homeseer,2013-06-30 01:35:00,
2013-06-29 21:55:00,82.9,69.1,0.00,WNW,297,0.0,0.0,56,0.00,,,-99.99,Homeseer,2013-06-30 01:55:00,
2013-06-29 22:05:00,82.9,69.1,0.00,WSW,247,0.0,0.0,56,0.00,,,-99.99,Homeseer,2013-06-30 02:05:00,
2013-06-29 22:15:00,82.9,69.1,0.00,WNW,297,0.0,0.0,56,0.00,,,-99.99,Homeseer,2013-06-30 02:15:00,
2013-06-29 22:25:00,82.9,69.1,0.00,WSW,247,0.0,0.0,56,0.00,,,-99.99,Homeseer,2013-06-30 02:25:00,
2013-06-29 22:35:00,82.9,69.1,0.00,WSW,247,0.0,0.0,56,0.00,,,-99.99,Homeseer,2013-06-30 02:35:00,
2013-06-29 22:45:00,82.9,69.1,0.00,WSW,247,0.0,0.0,56,0.00,,,-99.99,Homeseer,2013-06-30 02:45:00,
2013-06-29 22:55:00,82.9,69.1,0.00,ENE,67,0.0,0.0,56,0.00,,,-99.99,Homeseer,2013-06-30 02:55:00,
2013-06-29 23:05:00,82.4,70.2,0.00,WSW,247,0.0,0.0,60,0.00,,,-99.99,Homeseer,2013-06-30 03:05:00,
2013-06-29 23:15:00,82.4,70.2,0.00,WSW,247,0.0,0.0,60,0.00,,,-99.99,Homeseer,2013-06-30 03:15:00,
2013-06-29 23:25:00,82.4,70.2,0.00,WNW,297,0.0,0.0,60,0.00,,,-99.99,Homeseer,2013-06-30 03:25:00,
2013-06-29 23:35:00,82.4,70.2,0.00,East,90,0.0,0.0,60,0.00,,,-99.99,Homeseer,2013-06-30 03:35:00,
2013-06-29 23:45:00,82.4,70.2,0.00,WNW,297,0.0,0.0,60,0.00,,,-99.99,Homeseer,2013-06-30 03:45:00,
2013-06-29 23:55:00,82.4,70.2,0.00,WNW,297,0.0,0.0,60,0.00,,,-99.99,Homeseer,2013-06-30 03:55:00,